Location: Baia Mare
(47.6567°N, 23.5850°E)
Time: 16:15:27
(UTC+03:00)

ISS - Pass Details

Date: 29 July 2018
Orbit: 402 x 408 km, 51.6° (Epoch: 23 July)

Event Time Altitude Azimuth Distance (km) Brightness Sun altitude
Rises 23:24:00 0° 292° (WNW) 2,325 0.9 -17.8°
Reaches altitude 10° 23:26:06 10° 296° (WNW) 1,464 -0.2 -18.0°
Maximum altitude 23:29:21 62° 18° (NNE) 463 -3.5 -18.2°
Enters shadow 23:30:16 41° 79° (E) 603 -3.2 -18.3°
